RH
26 28 30 31 33 35 37 38 37 37 38 40 41 43 43 42 48 50 48 52 48 41 38 31 36 54 60 55 48 39 33 32 30 25 24 23 21 20 19 19 18 17 17 16 17 17 17 17 17 17 17 17 17 16 16 16 15 15 15 14 13 13 13 12 11 11 10 10 9 9 9 10 10 10 11 11 12 12 12 12 12 12 11 11 11 10
28 31 34 36 38 39 40 41 40 40 41 42 43 44 46 42 47 52 51 54 53 46 39 32 40 53 57 54 45 37 35 31 27 23 21 20 19 18 18 18 17 17 17 16 16 16 16 16 16 16 16 16 16 16 15 15 15 14 14 13 12 12 11 11 10 9 9 8 7 7 7 7 7 8 8 8 9 9 10 10 10 10 10 10 10 9
33 36 37 40 41 41 42 43 44 45 44 45 45 45 48 44 44 50 52 53 53 49 40 34 41 49 50 49 41 35 34 28 23 20 18 18 17 17 17 17 17 17 17 16 16 16 16 16 16 16 16 15 15 15 14 14 13 13 12 11 10 9 9 9 8 8 7 7 6 6 6 6 6 6 6 6 7 7 7 8 8 8 8 9 8 8
38 39 39 40 42 43 44 45 46 48 48 47 47 47 48 46 44 46 49 51 51 49 40 34 40 46 45 42 36 31 29 24 20 18 15 16 15 16 16 16 17 17 17 16 16 16 16 16 16 15 14 14 13 12 12 11 10 10 9 8 8 7 7 7 6 6 6 5 5 5 5 4 4 4 5 5 5 5 6 6 6 6 6 7 7 6
39 39 40 42 45 47 47 47 48 50 51 51 50 50 51 49 48 49 51 51 50 49 44 36 35 45 46 37 30 28 25 20 17 15 14 14 14 14 15 15 16 16 16 16 16 16 15 14 14 13 12 12 11 10 9 8 8 7 7 6 6 6 6 6 5 5 5 4 4 4 4 4 4 4 4 4 4 4 5 5 5 5 5 5 5 5
39 40 43 46 47 49 48 48 49 50 51 52 53 53 53 51 50 52 54 53 50 46 45 39 30 38 45 34 26 25 21 17 15 13 13 13 13 14 14 14 15 15 15 14 14 13 13 12 11 10 9 9 8 7 7 6 6 6 6 6 6 5 5 5 5 5 4 4 4 4 4 4 4 4 4 4 4 4 4 4 4 4 4 5 4 4
43 45 48 49 48 49 49 48 49 51 51 51 53 53 53 52 49 51 55 56 53 45 45 45 32 33 42 34 24 23 18 15 13 12 13 13 13 14 14 14 14 13 13 12 11 11 9 9 8 7 7 6 6 6 6 5 5 5 5 5 5 5 5 5 5 5 4 4 4 4 4 4 4 4 4 4 4 4 4 4 4 4 4 4 4 4
48 51 53 53 51 49 50 50 50 52 53 51 52 52 51 51 49 49 54 59 58 48 45 48 38 33 40 34 24 20 16 13 12 12 12 12 13 13 13 13 12 11 10 9 8 8 7 7 6 6 6 5 5 5 5 5 5 5 5 4 4 4 4 4 4 4 4 4 4 4 4 4 4 4 4 4 4 4 4 4 4 4 4 3 3 3
52 56 58 58 58 55 51 51 51 52 54 53 52 52 50 50 49 48 53 61 62 52 46 47 41 34 36 33 25 19 15 12 12 11 12 12 12 12 11 11 10 9 8 7 7 6 6 6 6 5 5 5 5 5 5 5 5 5 4 4 4 4 4 4 4 4 4 4 3 4 4 4 4 4 4 4 4 4 4 4 4 3 3 3 3 3
53 57 61 63 66 65 59 54 53 53 54 53 52 52 51 52 52 50 52 61 65 56 49 48 44 39 34 30 24 18 14 12 12 11 11 12 11 11 10 9 8 8 7 6 6 6 6 6 6 6 5 5 5 5 5 5 5 5 4 4 4 4 4 4 4 3 3 3 3 3 4 4 4 4 4 4 4 4 4 4 4 3 3 3 3 3
51 56 62 67 70 74 72 65 58 55 54 53 51 50 51 54 57 55 53 60 67 61 52 47 45 41 34 27 22 17 13 12 11 12 11 11 11 10 9 8 7 7 6 6 6 6 6 6 5 5 5 5 5 5 4 4 4 4 4 4 4 4 4 4 4 3 3 3 3 3 3 3 4 3 4 4 4 4 4 4 4 3 3 4 4 4
51 57 64 69 72 76 81 79 70 62 57 54 51 48 49 51 54 55 51 54 63 62 52 44 41 41 35 27 21 15 12 12 11 12 11 10 10 9 8 7 6 6 5 5 5 5 5 5 5 5 4 4 4 4 4 4 4 4 4 4 4 3 4 3 3 3 3 4 3 3 3 3 3 3 3 3 3 4 4 4 3 3 3 4 4 4
56 61 68 71 73 75 79 84 81 73 64 55 51 50 49 48 48 49 46 46 56 60 54 45 40 38 35 27 21 15 11 11 11 11 11 10 9 8 7 6 5 5 5 5 5 4 4 4 4 4 4 4 4 4 4 4 4 4 3 3 3 3 3 3 3 3 3 3 3 3 3 3 3 3 3 3 3 3 3 3 3 3 3 3 3 3
59 63 71 74 79 80 76 81 83 76 67 58 52 52 52 51 49 48 46 43 49 57 54 47 40 35 31 24 19 15 11 10 11 10 10 9 7 6 5 5 4 4 4 4 4 4 4 4 4 4 4 4 4 3 3 3 3 3 3 3 3 3 3 3 3 3 3 3 3 3 2 3 2 2 2 2 2 2 2 3 3 3 3 3 3 3
57 56 68 72 80 87 79 79 84 79 69 61 56 55 56 57 55 55 53 47 47 54 54 47 40 34 28 23 18 13 11 10 10 10 9 8 7 5 5 5 4 4 5 5 5 5 5 5 4 4 4 4 3 3 3 3 3 3 3 3 3 3 3 3 2 2 3 2 2 3 2 2 2 2 2 2 2 2 2 3 2 3 3 3 3 3
64 53 62 70 77 88 85 78 83 84 76 68 61 59 62 65 63 60 59 53 47 51 55 48 41 34 27 23 19 13 10 10 9 9 9 7 6 5 5 5 5 5 5 5 5 5 5 4 4 4 4 4 3 3 3 3 3 3 3 3 3 3 2 2 2 2 2 2 2 2 2 2 2 2 2 2 2 2 2 3 2 2 2 2 3 3
73 59 59 71 79 90 93 84 84 88 83 75 70 67 68 70 69 64 60 55 48 48 54 51 42 36 29 23 19 14 10 9 9 9 8 7 6 5 5 5 5 4 4 4 5 5 5 4 4 4 4 3 3 3 3 3 3 3 2 2 2 2 2 2 2 2 2 2 2 2 2 2 2 2 2 2 2 2 2 3 2 2 2 2 2 2
73 66 60 70 81 91 97 93 92 94 88 82 78 71 69 69 68 66 61 56 50 46 51 53 47 39 31 24 20 14 10 9 9 9 8 7 6 5 5 5 5 5 5 5 5 5 5 5 4 4 4 3 3 3 3 3 3 2 2 2 2 2 3 3 3 3 3 2 2 2 2 2 2 2 2 2 2 2 2 2 2 2 2 2 2 2
65 68 61 65 76 87 96 97 98 100 94 87 81 71 68 66 64 67 66 60 53 48 48 51 49 42 33 27 22 15 10 9 8 9 8 6 5 5 5 5 5 5 5 5 5 5 5 4 4 4 3 3 3 3 3 2 2 2 2 2 3 3 3 3 3 3 3 3 2 2 2 2 2 2 2 2 2 2 2 2 2 2 2 2 2 2
56 64 63 63 70 80 90 93 97 103 100 91 83 75 69 64 61 67 72 67 58 51 49 49 49 46 37 28 23 16 10 9 8 8 7 6 5 5 5 4 4 5 5 5 4 4 4 3 3 3 3 3 2 2 2 2 2 2 2 3 3 3 3 3 3 3 3 3 3 3 3 2 2 2 2 2 2 2 2 2 2 2 2 2 2 2
50 58 61 63 70 77 85 89 91 97 99 93 88 84 77 66 58 61 69 71 64 54 52 51 50 48 38 28 23 17 11 9 8 8 7 6 5 4 4 4 4 4 4 4 4 3 3 3 3 2 2 2 2 2 2 2 2 2 2 3 3 3 3 3 3 3 3 3 3 3 3 2 2 2 2 2 2 2 2 2 2 2 2 2 2 2
46 51 54 58 65 72 79 84 85 91 98 98 94 92 88 74 59 55 61 67 66 58 54 54 52 48 40 30 25 19 13 9 8 8 7 6 5 4 4 4 4 4 4 4 4 3 3 3 3 2 2 2 2 2 2 2 3 3 3 3 2 2 3 3 3 2 2 3 2 2 3 2 2 2 2 2 2 2 2 2 2 2 2 2 2 2
47 46 50 55 64 74 80 87 93 98 101 102 100 97 96 85 65 57 59 63 66 61 53 51 52 49 42 33 26 21 15 10 9 9 7 6 5 5 4 5 5 5 5 4 4 3 3 2 2 2 2 2 2 2 2 3 3 3 3 3 3 3 2 2 2 2 2 3 2 2 2 2 2 2 2 2 2 2 2 2 2 2 2 2 2 2
52 44 45 50 59 74 88 96 105 109 104 100 102 100 100 94 75 61 59 60 64 64 53 47 49 48 44 38 31 25 18 11 10 9 8 6 4 4 4 4 5 5 4 4 3 3 3 2 2 2 2 2 2 2 3 3 3 3 3 3 3 3 3 3 2 3 3 2 2 3 2 2 2 2 2 2 2 2 2 2 2 1 2 2 2 2
61 50 46 45 46 53 66 72 79 94 102 101 103 103 101 99 85 67 59 57 60 64 57 47 46 47 46 41 34 27 19 12 9 9 7 6 4 4 4 4 4 4 4 4 3 3 2 2 2 2 3 2 3 3 3 3 3 3 3 3 3 3 3 3 3 3 3 3 2 2 2 2 2 2 2 2 2 2 1 2 2 1 2 2 2 2
68 60 52 51 50 45 47 52 54 69 90 101 104 104 102 98 89 73 62 55 56 61 60 51 46 47 46 41 32 25 18 11 8 8 7 5 4 4 4 4 4 4 4 3 3 3 2 2 2 2 2 3 3 3 3 3 3 3 3 3 3 3 3 3 3 2 2 2 2 2 2 2 2 2 2 2 2 2 2 2 2 1 2 2 2 2
71 71 65 61 62 55 51 59 62 67 84 98 104 106 101 92 85 75 65 58 56 57 58 54 48 45 45 41 33 25 17 11 8 7 7 5 4 4 4 4 4 4 4 3 2 2 2 2 2 2 2 3 3 3 3 3 3 3 3 3 3 3 3 2 2 2 2 2 2 2 2 2 2 2 2 2 2 2 2 2 2 2 2 2 2 2
69 78 78 70 69 64 58 64 72 77 85 95 101 106 100 86 77 73 66 60 60 58 56 56 52 46 45 42 35 26 17 11 8 7 7 6 4 4 4 4 4 4 4 3 2 2 2 2 2 2 3 3 3 3 3 3 3 3 3 3 2 2 2 2 2 2 2 2 2 2 2 1 2 2 2 2 2 2 2 2 2 2 2 2 2 2
66 77 82 77 73 71 66 66 73 78 84 92 97 98 97 88 75 68 63 60 63 63 60 59 56 50 47 44 38 29 20 14 10 7 7 7 5 4 4 4 4 4 4 3 3 2 2 2 2 2 3 3 3 3 3 3 3 2 2 2 2 2 2 2 2 2 2 2 2 2 2 2 2 2 2 2 2 2 2 2 2 2 2 2 2 2
64 72 79 79 77 78 74 69 71 74 77 88 93 88 90 94 80 63 57 57 61 64 63 61 58 53 50 47 41 34 26 19 12 8 7 7 5 4 4 4 4 4 4 3 3 3 2 2 2 3 3 3 3 3 3 3 2 2 2 2 2 2 2 2 2 2 2 2 2 2 2 2 2 2 2 2 2 2 2 2 2 2 2 2 2 2
59 65 72 75 77 81 80 72 70 73 73 81 90 85 86 94 81 60 54 55 58 61 60 59 58 53 49 48 45 39 31 22 14 8 7 6 5 4 4 4 4 4 4 4 3 3 2 2 2 3 3 3 3 3 2 2 2 2 2 2 2 2 2 2 2 2 2 2 2 2 2 2 2 2 2 2 2 2 2 2 2 2 2 2 2 2
52 57 64 69 72 78 82 74 69 71 70 73 82 84 83 86 76 60 57 59 59 59 58 56 57 54 49 47 46 42 34 25 16 9 6 6 6 4 4 4 4 4 4 4 3 3 2 2 2 3 3 3 3 3 2 2 2 2 2 2 2 2 2 2 2 2 2 2 2 2 2 2 2 2 2 2 2 2 2 2 2 2 2 2 2 2
48 51 56 62 66 71 78 75 67 65 65 64 71 77 77 76 70 62 61 63 63 62 60 57 56 56 53 49 46 43 37 28 19 12 7 6 6 5 4 3 4 4 4 4 3 3 2 2 2 3 3 3 3 2 2 2 2 2 2 2 2 2 2 2 2 2 2 2 2 2 2 2 2 2 2 2 2 2 2 2 2 2 2 2 2 2
47 49 52 56 61 66 72 73 63 57 57 58 61 65 67 69 71 69 67 66 64 61 59 57 56 57 57 53 47 44 40 32 24 15 9 7 6 5 4 3 3 4 4 4 3 3 3 2 2 3 3 3 3 2 2 2 2 2 2 2 2 2 2 2 2 2 2 2 2 2 2 2 2 2 2 2 2 2 2 2 2 2 2 2 2 2
50 49 50 53 58 63 67 66 60 54 54 55 55 56 58 63 69 73 72 66 61 58 56 56 55 55 57 56 50 46 43 38 29 20 12 8 6 5 4 4 3 3 4 4 4 3 3 2 2 3 3 3 3 2 2 2 2 2 2 2 2 2 2 2 2 2 2 2 2 2 2 2 2 2 2 2 2 2 2 2 2 2 2 2 2 2
58 53 51 53 57 61 64 65 64 60 55 53 53 52 52 56 62 66 65 60 57 59 57 53 51 52 54 56 53 48 45 41 34 26 17 10 6 6 5 3 3 3 3 4 4 3 3 3 3 3 3 3 3 2 2 2 2 2 2 2 2 2 2 2 2 2 2 2 2 2 2 2 2 2 2 2 2 2 2 2 2 2 2 2 2 2
71 64 56 53 56 60 62 63 65 64 59 54 54 52 49 51 55 57 56 55 57 63 62 53 48 48 51 55 55 50 45 42 37 30 21 12 7 6 5 4 3 3 4 4 4 4 3 3 3 3 3 3 3 3 2 2 2 2 2 2 2 2 2 2 2 2 2 2 2 2 2 2 2 2 2 2 2 2 2 2 3 2 2 2 2 2
83 79 69 59 57 62 65 61 57 60 61 56 52 51 48 47 49 50 52 56 59 62 62 56 49 47 48 52 56 53 46 41 37 31 23 15 10 6 6 5 4 3 4 4 4 4 4 3 3 3 3 3 3 3 2 2 2 2 3 3 3 3 2 3 2 3 3 2 3 3 2 3 2 3 3 3 3 3 2 2 3 3 2 3 3 3
90 91 83 70 63 65 73 71 62 61 66 62 54 49 46 45 47 47 48 53 56 56 58 58 54 51 49 50 54 57 51 43 38 35 27 20 14 9 6 6 5 4 4 4 4 4 4 3 3 3 3 3 3 3 2 3 2 2 3 3 3 3 3 3 3 3 3 3 3 3 3 3 3 3 3 3 3 3 3 3 3 3 3 3 3 3
96 98 91 78 69 68 76 80 72 66 68 68 60 52 45 43 44 44 44 47 51 53 56 60 58 55 53 51 52 57 58 51 44 39 33 26 19 13 8 6 6 4 4 4 4 4 4 4 3 3 3 3 3 3 3 3 3 3 3 3 3 3 3 3 3 3 3 3 3 3 3 3 3 3 3 3 3 3 3 3 3 3 3 3 3 3
96 98 94 84 75 71 74 80 78 70 68 70 67 58 49 43 41 41 41 42 46 51 55 60 61 58 56 55 53 55 60 59 51 44 38 31 24 17 10 7 6 5 4 4 4 4 4 4 4 3 3 3 3 3 3 3 3 3 3 3 3 3 3 3 3 3 3 3 3 3 3 3 3 3 3 3 3 3 3 4 4 4 4 4 4 4
91 91 91 88 80 74 74 77 77 72 69 70 70 65 54 45 40 39 39 40 42 46 51 56 60 59 56 56 55 53 58 63 59 50 43 36 28 21 14 8 6 6 5 4 4 4 4 4 4 4 3 3 3 3 3 3 3 3 3 3 3 3 3 3 3 3 3 3 3 3 3 3 3 3 3 3 3 3 3 3 4 4 4 4 4 4
89 87 88 88 83 76 74 75 76 78 75 72 71 68 59 51 45 41 40 39 39 41 45 50 57 58 55 56 56 52 54 62 63 55 47 40 32 24 17 11 7 6 6 5 4 4 4 4 4 4 4 3 3 3 3 3 3 3 3 3 3 3 3 3 3 3 3 3 3 3 3 3 3 3 3 3 3 3 3 3 4 4 4 4 4 4
93 91 92 92 87 80 76 77 84 90 88 80 74 70 63 56 51 47 44 40 38 39 40 44 51 55 54 54 55 52 51 57 64 60 51 44 36 27 20 14 9 7 6 5 4 4 4 4 4 4 4 3 3 3 3 3 3 3 4 4 3 4 3 3 3 3 3 4 4 4 4 3 4 4 4 4 4 4 4 4 4 4 4 4 4 4
97 98 97 97 94 89 83 83 89 97 97 88 80 75 69 63 57 53 49 43 39 37 38 41 47 52 53 54 55 53 48 52 62 64 56 48 40 32 24 18 11 8 6 6 5 4 4 4 4 4 4 4 3 3 3 3 3 3 4 4 4 4 4 4 4 3 4 4 4 4 4 4 4 4 4 4 4 4 4 4 4 4 4 4 4 4
100 101 100 99 98 96 93 91 92 97 100 95 86 79 74 68 62 57 53 48 41 38 37 39 43 49 52 53 55 54 48 48 57 65 61 52 44 36 29 21 15 9 7 6 6 4 4 4 4 4 4 4 4 3 3 3 3 3 4 4 4 4 4 4 4 4 4 4 4 4 4 4 4 4 4 4 4 4 4 4 4 4 4 4 5 4
96 98 99 99 98 96 95 96 97 98 100 99 91 82 78 73 67 60 55 50 44 39 37 37 41 46 51 53 55 55 49 46 51 61 64 57 48 40 33 26 18 12 8 7 6 5 4 4 4 5 4 4 4 4 4 3 3 3 3 4 4 4 4 4 4 4 4 4 4 4 4 4 4 4 4 5 5 5 5 5 5 5 5 5 5 5
88 92 95 98 97 95 94 97 99 98 97 98 93 83 77 74 69 62 57 51 45 41 39 38 39 43 48 52 55 55 50 45 47 55 62 61 53 44 37 30 22 15 10 7 6 6 5 4 4 5 5 4 5 4 4 4 3 3 3 3 4 4 5 4 5 4 4 4 4 4 4 5 4 4 5 5 5 5 5 5 5 5 5 5 5 5
79 84 90 94 96 94 92 95 97 94 92 94 91 82 75 73 71 65 58 51 45 42 41 39 38 41 46 50 54 55 52 46 45 49 58 62 58 50 42 34 27 19 13 9 7 6 6 5 4 5 5 4 5 4 4 4 4 3 3 3 4 4 5 5 5 5 5 5 5 4 5 5 5 5 5 5 5 5 5 5 5 5 5 5 5 5
74 77 82 88 93 92 91 93 93 90 89 92 91 85 78 73 72 68 61 53 46 42 41 40 37 39 45 49 53 55 53 48 44 45 52 59 60 55 47 38 31 24 17 11 8 6 6 5 4 4 5 5 5 4 4 4 4 4 4 4 4 4 4 5 5 5 5 5 5 5 5 5 5 5 5 5 5 5 5 5 5 5 5 6 6 6
72 72 76 82 87 89 90 90 90 89 91 92 91 88 82 76 74 71 64 55 47 41 40 40 37 38 43 48 51 54 53 49 45 44 46 53 59 59 53 44 36 29 22 15 10 7 6 6 5 4 4 5 5 5 5 4 4 4 4 4 4 4 4 5 5 5 6 6 5 5 5 5 5 5 5 5 5 5 6 6 6 6 6 6 6 6
Wind_Speed
41 45 50 53 56 59 61 63 64 65 67 68 69 70 72 72 74 77 77 78 78 74 72 71 71 76 80 80 80 80 81 81 81 80 79 79 80 81 81 81 81 81 81 82 82 83 84 85 86 87 89 90 91 93 94 95 96 98 99 100 100 101 101 102 103 104 104 105 105 105 105 106 106 107 109 110 112 113 115 115 116 117 118 119 120 121
47 51 55 58 60 62 64 66 68 69 70 71 72 74 75 76 76 79 81 82 82 80 77 74 73 77 82 82 81 81 81 81 81 80 80 80 82 82 82 81 81 81 81 81 82 82 83 84 85 86 87 88 90 91 92 93 95 96 98 99 99 100 101 102 103 103 103 103 103 103 103 103 103 104 105 106 108 110 111 113 114 116 117 118 119 119
53 56 59 62 63 64 66 68 70 72 73 74 76 77 79 80 79 80 83 85 86 85 82 78 76 77 81 82 81 81 81 81 80 80 80 80 81 82 82 82 81 81 81 81 81 82 82 83 83 85 86 87 88 89 90 92 93 94 96 97 98 99 100 101 102 102 103 102 102 102 101 101 101 101 101 102 103 105 107 109 111 113 114 116 117 118
58 60 62 64 65 66 68 69 71 74 76 78 79 81 82 85 85 84 84 85 88 89 87 82 78 78 82 82 80 81 80 80 80 80 80 80 81 82 81 81 81 81 81 81 81 81 82 82 83 84 85 86 87 87 89 90 91 93 94 95 96 97 98 99 100 100 101 101 100 101 100 100 99 98 98 99 100 101 103 105 107 110 111 112 113 114
60 63 64 65 67 68 70 72 74 76 78 81 83 84 86 88 90 90 89 88 88 91 92 87 81 80 84 84 81 82 81 80 79 78 79 78 79 79 79 79 79 79 80 80 81 81 82 82 82 83 84 85 86 87 88 89 89 90 91 92 93 94 95 96 97 98 98 98 97 98 97 97 96 95 95 96 97 98 100 101 103 106 108 109 110 111
62 64 66 67 69 71 72 74 76 77 79 82 84 87 88 90 92 93 93 93 92 93 95 94 87 82 86 86 84 83 80 78 77 75 75 75 75 76 76 76 76 77 77 78 79 80 80 81 82 82 83 84 84 85 86 87 87 88 88 89 90 91 93 93 94 95 95 94 94 93 93 93 93 92 92 92 93 93 94 96 98 101 104 106 107 108
63 66 68 70 72 74 76 77 79 80 82 83 85 88 90 92 94 95 97 97 97 97 98 99 94 88 89 88 84 83 80 77 76 74 73 72 72 72 72 73 73 74 75 76 77 78 79 80 80 81 81 82 82 82 83 84 84 85 86 87 88 89 89 90 91 91 91 91 90 89 89 88 88 87 87 87 89 89 90 92 94 97 99 102 103 105
65 68 70 73 75 77 79 80 82 83 84 85 87 89 92 94 96 98 99 100 100 100 100 101 98 92 92 92 87 85 82 79 76 74 72 71 70 70 70 71 72 73 73 74 75 76 77 78 78 79 79 79 80 80 80 81 82 82 83 84 85 85 86 86 86 86 86 86 85 84 84 83 82 82 81 82 84 87 88 90 92 93 95 97 99 101
66 69 72 75 78 80 82 83 85 86 86 87 89 91 94 96 99 100 101 101 102 103 102 101 100 95 94 96 93 88 85 81 77 75 73 71 70 70 70 71 72 72 73 74 74 75 76 77 77 78 78 78 79 79 79 80 81 81 82 83 83 84 84 83 82 81 80 80 79 78 77 77 77 77 78 78 80 83 85 87 88 89 90 92 94 97
68 71 73 76 79 82 84 86 87 88 89 89 91 93 95 97 99 101 102 102 102 105 105 105 105 102 97 96 95 92 88 84 80 77 74 73 72 71 72 72 73 73 73 74 74 74 74 75 76 76 76 77 77 78 78 78 79 80 81 82 82 82 82 81 79 78 76 74 73 72 72 73 72 74 74 74 76 78 80 82 83 84 85 87 89 91
69 71 73 75 78 81 84 87 89 91 91 92 93 94 95 96 98 101 102 103 104 107 109 108 108 108 103 98 95 93 90 87 83 79 77 75 74 73 73 73 73 72 71 71 71 71 72 72 73 73 73 74 75 75 76 76 77 78 79 79 79 78 78 77 76 75 73 71 71 71 71 71 71 72 73 73 74 76 78 79 79 80 80 81 83 85
68 71 73 75 77 80 83 87 90 92 94 95 96 96 96 96 98 101 103 105 108 110 112 110 109 109 107 103 99 95 91 87 84 81 78 76 75 74 73 72 71 70 69 69 69 69 70 70 71 71 72 72 73 73 73 74 75 75 76 75 74 74 74 74 73 72 71 72 72 72 73 73 73 74 74 74 75 76 77 78 78 78 78 78 79 81
68 71 72 74 78 80 82 85 88 91 94 96 98 101 101 102 103 105 106 107 110 112 115 114 111 110 109 107 103 98 93 88 85 82 79 77 76 75 74 72 71 70 70 69 69 70 70 71 72 72 72 72 72 71 71 71 72 72 71 70 69 68 69 69 69 70 71 72 73 74 74 75 75 76 76 75 75 75 77 78 78 78 77 76 76 78
68 71 73 75 79 82 84 86 88 91 94 97 101 105 108 110 112 113 113 112 113 115 118 117 115 112 110 107 105 100 95 91 87 84 82 80 78 76 75 74 72 72 72 72 72 72 73 74 74 74 74 74 74 73 72 71 70 69 67 66 65 65 66 67 67 68 69 69 70 72 73 73 75 75 74 73 72 72 73 75 76 77 77 76 75 76
71 74 76 78 81 84 87 89 91 94 97 100 103 107 111 114 116 117 119 119 119 119 121 120 118 115 112 109 106 102 97 93 89 87 85 82 80 78 77 76 75 74 74 74 74 74 74 75 75 75 75 75 74 73 71 70 69 67 66 66 66 66 66 66 65 65 65 65 66 67 69 70 71 71 70 69 67 66 67 69 71 74 75 75 75 76
75 78 79 81 84 86 88 91 93 96 99 102 105 107 110 113 115 116 118 120 120 121 123 123 120 117 114 111 108 104 99 95 91 88 87 85 83 81 79 78 77 76 75 74 74 74 74 75 75 76 76 75 74 72 70 69 68 67 66 66 66 65 64 64 63 63 63 63 63 64 65 65 65 64 63 62 61 61 61 64 66 68 70 71 73 74
76 80 81 82 85 86 89 92 94 97 101 105 107 107 108 110 114 116 117 119 121 121 124 126 125 121 118 114 112 108 102 98 94 91 89 88 86 83 81 80 79 79 78 77 76 76 75 75 75 75 75 74 73 71 69 69 69 68 67 66 64 63 62 62 61 60 60 61 61 61 60 59 58 57 57 56 56 57 58 59 61 63 64 66 68 70
74 79 81 82 84 87 89 93 96 99 103 107 110 110 109 110 113 118 121 123 125 125 126 129 129 127 122 119 116 112 106 101 97 95 93 91 89 87 85 83 82 81 80 79 78 77 76 74 73 73 73 71 70 69 68 67 66 66 65 64 63 61 61 60 60 59 58 57 56 54 53 52 51 52 52 52 52 53 53 54 55 57 59 60 62 64
73 77 81 83 85 87 90 93 95 99 103 108 112 114 114 114 115 119 124 128 130 130 130 130 132 130 126 123 120 115 110 104 100 98 95 92 90 87 85 83 81 79 79 78 77 77 76 74 72 70 69 67 66 65 65 64 63 61 60 59 59 59 59 58 57 56 55 53 50 48 47 47 47 47 47 47 47 49 49 49 51 52 54 55 56 58
73 76 80 83 86 88 91 93 94 97 101 106 112 116 118 117 117 118 123 128 132 134 134 134 134 133 130 125 122 118 113 107 102 99 96 93 90 88 86 83 81 79 77 76 74 73 72 70 69 68 67 64 62 62 61 60 59 57 56 55 55 55 55 55 54 52 51 49 46 44 43 43 43 43 43 42 43 44 45 46 47 49 50 50 52 53
73 76 79 83 86 89 91 94 95 97 101 105 111 117 120 120 118 117 120 126 131 134 137 138 137 135 132 127 125 122 117 111 106 102 99 96 92 90 88 86 83 80 77 76 74 71 69 67 65 66 65 63 60 59 58 56 55 53 52 51 50 50 49 49 49 47 45 43 42 41 40 40 39 38 39 39 40 41 41 43 44 46 47 47 48 49
73 75 79 83 86 89 92 95 98 100 103 106 110 116 121 124 123 120 120 124 130 134 136 138 138 137 134 130 127 125 121 115 109 105 101 98 95 92 89 87 84 81 79 77 74 71 68 65 64 63 63 62 59 56 54 52 51 49 48 47 45 44 44 43 43 41 39 38 37 37 37 36 35 35 36 37 38 39 39 40 41 43 44 45 46 46
74 75 78 81 85 89 91 93 96 98 100 104 108 114 120 125 126 125 125 127 131 133 133 135 138 139 137 134 130 127 124 119 113 107 103 99 95 93 89 86 84 82 81 78 75 71 67 65 63 61 61 60 57 53 51 49 47 45 44 42 41 40 40 39 37 35 34 34 33 33 33 33 33 33 33 35 36 37 37 38 39 40 41 42 43 44
76 76 77 79 81 84 87 89 92 95 98 102 107 112 118 124 126 126 126 128 132 134 134 134 136 139 139 137 134 130 127 122 116 111 105 100 95 93 90 87 84 82 81 78 74 70 67 65 63 61 59 58 56 53 50 47 45 43 41 40 39 38 37 35 33 32 31 31 30 30 31 31 31 31 32 33 34 35 36 36 37 38 39 40 40 41
78 80 81 82 82 83 86 90 94 97 101 104 108 113 118 122 124 124 124 126 129 134 136 136 136 139 140 139 136 132 128 123 118 112 107 102 98 95 92 89 85 83 80 77 74 70 68 66 64 62 60 58 55 52 50 48 45 43 41 40 38 37 34 32 31 30 29 28 28 28 29 29 29 29 30 31 32 33 33 34 35 36 36 37 38 39
80 83 86 87 90 92 95 98 101 103 104 106 108 113 118 122 124 125 125 125 127 131 135 137 138 140 141 139 136 132 128 123 116 110 106 103 100 97 94 91 88 86 83 78 74 71 69 66 63 61 59 56 53 50 48 47 45 43 42 39 37 36 33 30 29 28 28 27 27 27 27 27 26 26 27 29 29 30 31 32 33 34 34 35 35 36
79 84 87 90 93 96 99 102 104 106 106 106 107 112 117 122 125 126 126 126 127 129 132 137 140 141 142 142 138 134 128 122 117 112 108 105 102 99 96 93 90 88 85 79 74 71 68 65 63 60 57 54 52 49 47 45 44 43 41 39 36 34 32 29 27 26 25 25 25 24 25 24 24 24 25 26 27 28 29 30 31 32 32 32 33 34
78 82 87 90 92 96 99 101 103 106 106 107 108 111 117 122 125 126 125 126 129 131 134 138 141 142 144 144 141 136 131 126 122 118 113 109 105 102 98 93 89 86 83 79 74 70 67 64 61 59 56 54 52 50 47 45 43 42 40 38 35 33 31 28 26 24 24 23 23 22 22 22 22 22 23 24 25 26 27 28 29 30 30 30 31 31
78 81 84 88 92 95 98 101 103 105 106 107 109 111 116 121 124 124 123 126 130 135 139 141 143 144 145 145 144 141 136 132 128 122 117 111 106 101 97 93 88 86 83 79 75 72 68 65 62 59 57 55 53 50 48 45 43 41 38 36 34 32 30 28 26 24 23 22 21 21 21 20 20 20 21 22 23 24 25 26 27 28 28 28 28 29
77 80 83 87 91 94 97 100 102 104 106 107 109 111 115 120 123 122 123 125 131 136 140 143 144 145 146 147 147 145 142 136 130 124 117 112 107 102 99 95 91 88 85 81 77 73 70 67 64 61 58 57 54 52 49 46 43 40 38 36 34 31 29 27 26 25 24 23 21 20 19 19 18 18 19 20 21 22 24 25 26 26 27 27 27 27
77 79 82 86 89 92 96 99 102 104 106 107 108 111 114 118 121 122 123 126 131 135 139 142 144 145 146 148 149 148 144 139 133 126 120 115 111 106 103 99 94 90 88 84 79 75 72 69 66 63 60 58 56 53 50 47 44 41 39 36 34 32 30 28 27 25 24 23 22 20 19 18 17 17 17 19 20 21 23 23 24 25 26 26 26 26
77 79 81 84 88 91 94 98 101 103 106 107 108 110 114 118 121 122 125 129 133 136 138 141 144 146 147 148 149 149 147 143 138 132 125 118 114 110 106 102 97 92 89 86 82 77 74 71 67 64 62 59 57 54 52 48 45 42 40 37 35 33 31 29 28 26 25 23 22 20 19 17 17 16 16 17 19 20 21 22 23 24 25 25 25 25
78 80 82 84 86 90 93 97 100 102 104 107 109 112 115 119 122 125 127 130 134 137 140 142 145 148 149 150 151 151 151 148 144 138 131 123 117 113 109 104 99 94 91 88 83 78 75 72 69 66 63 60 57 54 52 49 46 43 41 38 36 34 32 30 28 27 25 24 23 21 19 18 17 17 17 17 17 18 19 21 22 23 24 24 24 24
79 81 83 85 87 89 92 96 98 101 105 109 113 116 118 121 123 126 127 130 133 137 140 143 145 148 150 151 152 152 152 150 146 141 135 128 121 115 110 105 100 95 91 89 85 80 77 74 71 68 65 61 58 55 52 50 47 44 42 39 37 35 33 31 29 27 26 24 23 22 21 19 17 17 16 16 16 16 17 19 21 22 22 22 22 22
80 82 84 86 88 91 93 96 99 103 108 111 114 118 120 121 121 123 125 129 133 138 141 144 145 148 150 151 151 151 151 150 147 143 138 131 124 117 111 106 102 97 93 91 88 84 79 76 74 71 67 64 61 57 54 51 47 45 42 40 38 35 34 32 30 28 26 25 24 22 21 20 18 17 16 16 15 15 16 18 19 20 21 21 21 21
81 83 85 87 89 91 94 98 102 105 108 110 113 117 120 121 122 123 126 131 136 141 144 146 146 147 148 149 150 150 150 149 147 144 139 132 125 119 114 109 106 101 97 94 92 88 83 79 76 73 70 67 63 60 56 52 49 46 43 41 38 36 34 33 32 30 28 26 25 24 23 21 20 18 17 16 15 15 15 16 17 18 19 20 20 20
82 84 86 88 90 92 94 97 99 102 105 108 111 115 119 123 126 129 131 134 138 142 145 146 147 147 148 149 150 150 149 148 147 145 140 135 128 123 119 115 111 106 102 97 95 92 87 81 78 75 72 69 65 62 59 55 52 48 46 43 40 38 36 35 34 33 31 29 28 27 26 24 22 20 18 16 16 15 15 14 15 16 17 18 18 18
83 86 88 90 92 94 96 97 98 101 105 108 112 115 119 122 125 128 131 135 137 140 142 145 147 148 149 151 153 153 152 150 149 147 144 140 134 128 124 121 117 112 106 100 97 94 91 85 80 76 73 70 67 64 60 57 54 51 48 45 42 40 38 37 36 34 33 32 30 29 27 26 24 22 20 17 15 14 14 13 13 13 14 15 16 16
83 85 88 90 92 94 97 100 102 104 106 109 112 116 119 121 122 124 127 131 134 136 140 144 148 150 152 154 156 157 157 155 154 153 150 147 143 136 130 124 120 116 111 105 99 96 93 89 84 79 75 72 69 66 63 59 56 53 49 47 44 42 39 37 36 34 33 31 29 27 26 24 23 21 19 18 16 14 13 12 11 11 11 12 13 14
81 84 87 90 92 94 97 100 103 106 108 110 112 115 118 121 123 125 126 129 132 136 140 144 148 152 154 155 156 158 160 160 159 157 155 152 148 142 135 128 122 118 113 109 103 98 95 92 87 82 78 75 71 68 65 61 58 54 51 48 45 43 40 38 36 33 31 30 28 27 25 24 22 20 19 18 16 14 12 11 10 9 9 9 10 11
80 83 86 89 92 94 96 99 102 105 107 110 112 114 117 120 122 125 128 131 134 137 140 144 147 151 154 156 156 157 159 161 161 159 157 154 150 145 139 131 125 120 116 112 106 101 98 95 91 85 80 76 73 70 67 63 60 56 52 49 46 43 41 38 35 33 31 29 27 26 26 24 22 20 19 17 16 14 12 11 9 8 7 7 7 8
79 82 85 88 91 94 96 98 100 103 105 108 111 114 116 119 122 125 129 132 135 137 140 142 146 149 152 155 156 156 156 158 159 159 157 155 151 146 141 134 128 123 119 114 110 104 100 96 93 89 83 78 75 72 68 65 61 58 54 50 47 44 41 39 36 34 32 30 28 27 26 24 23 21 20 19 17 16 14 12 10 9 7 6 6 6
80 83 85 88 91 94 96 99 102 105 107 109 111 113 115 119 123 127 130 132 134 136 138 140 144 147 150 153 155 155 154 155 157 157 156 155 151 147 143 137 131 125 120 116 112 107 102 98 95 91 86 80 76 73 70 67 63 60 56 52 48 45 42 40 37 35 34 32 30 29 28 26 25 24 23 21 20 18 15 13 12 10 9 7 6 6
81 83 86 89 92 95 98 101 104 107 109 111 113 115 117 120 123 127 130 132 134 135 137 139 142 145 148 151 154 154 152 153 155 156 156 155 153 149 145 140 134 128 122 118 113 109 104 99 96 93 88 83 78 74 72 68 65 61 58 54 50 46 43 41 39 36 35 33 32 31 29 28 27 26 25 23 21 19 17 14 13 11 10 9 7 6
81 84 86 89 92 95 98 101 103 105 107 110 112 114 117 119 122 126 129 132 134 136 137 139 141 143 146 150 152 153 151 150 152 155 155 155 154 151 147 142 137 130 124 119 114 110 106 100 96 94 90 86 80 76 73 70 66 63 59 55 51 48 45 43 40 38 36 34 33 32 30 29 28 27 26 24 22 20 18 15 13 12 11 10 8 7
80 83 86 88 91 94 97 99 102 103 106 108 111 113 116 118 120 123 127 131 134 136 138 139 140 142 145 148 150 152 150 149 150 152 154 154 154 152 149 145 139 133 126 121 116 112 108 102 98 94 92 88 83 78 75 71 68 64 61 57 53 49 46 44 42 39 37 35 34 32 30 29 29 28 26 24 22 20 17 16 14 12 11 10 9 8
79 82 85 87 90 92 95 98 101 103 105 107 110 113 115 117 120 122 126 129 133 136 138 139 140 141 143 146 148 150 150 147 147 149 152 153 153 152 150 147 142 136 129 123 118 113 109 105 100 96 93 89 85 80 76 72 69 66 62 59 55 52 48 45 43 40 38 36 34 32 30 29 29 27 25 23 21 19 17 15 14 12 11 10 9 8
78 81 84 87 89 92 94 97 100 102 104 107 109 112 114 117 119 122 125 129 133 136 138 139 139 140 141 144 146 148 149 147 145 147 150 151 152 152 151 148 144 139 133 126 120 115 111 107 102 97 94 91 87 82 76 73 70 67 64 61 57 53 50 47 44 42 39 37 35 32 31 30 29 26 23 22 20 18 16 15 14 13 11 10 9 7
78 80 83 86 88 91 93 95 97 100 103 105 108 111 114 116 119 122 124 128 132 135 137 138 139 139 140 142 144 147 148 146 144 144 147 150 151 151 151 149 146 142 137 130 123 118 113 109 105 99 95 92 89 84 78 74 70 67 65 62 58 55 52 49 46 43 40 37 35 33 32 31 29 25 23 22 20 18 17 15 14 13 11 10 8 7
78 80 83 86 88 90 92 94 97 99 102 104 107 110 113 115 118 120 123 126 130 133 135 136 137 138 139 140 142 144 146 146 144 143 145 148 150 150 150 149 147 144 140 134 128 121 116 112 107 103 98 94 91 87 82 76 72 69 66 63 60 57 54 51 47 44 41 38 36 34 32 31 29 26 24 22 21 19 18 17 15 14 12 10 9 8
78 80 83 85 88 90 92 94 97 99 101 104 107 109 112 115 117 119 122 125 128 131 134 135 136 137 138 139 140 142 144 144 143 141 142 145 148 150 150 150 148 146 142 137 132 125 119 114 110 106 101 96 92 90 85 79 74 71 67 64 61 58 55 52 48 45 42 39 36 34 32 31 29 26 25 23 22 20 19 18 16 13 11 9 8 7
Wind_Direction
6 6 6 6 5 4 3 1 0 359 359 358 357 356 355 356 355 351 350 348 346 348 345 343 343 336 330 329 329 327 324 322 320 317 315 311 307 305 303 301 299 297 295 294 292 291 289 288 286 285 284 283 282 281 280 280 279 279 278 277 277 276 275 273 272 272 271 270 269 268 267 265 264 263 263 262 262 262 262 261 261 260 260 259 258 257
10 9 9 8 7 6 4 3 1 0 0 359 358 357 356 357 357 354 352 350 347 348 346 345 346 339 332 332 332 329 326 323 321 318 315 312 309 307 305 303 301 299 298 296 294 292 290 288 287 286 284 283 282 281 281 280 279 279 278 278 277 276 276 275 274 273 272 272 271 270 269 267 266 265 264 263 262 262 261 261 261 260 260 260 259 259
12 11 11 10 8 7 6 4 3 2 1 360 359 358 357 356 358 356 354 351 348 347 346 347 348 341 334 334 333 329 327 324 322 319 316 313 310 308 306 305 303 301 300 298 295 293 291 290 288 287 285 284 283 282 281 280 279 278 278 278 277 277 276 276 275 275 274 273 273 271 270 269 268 267 265 264 263 262 262 261 261 260 260 259 259 259
13 12 11 10 9 7 6 5 5 3 1 0 359 358 358 356 356 357 355 353 350 347 346 347 349 344 336 335 334 330 329 326 323 321 317 315 312 310 308 307 305 303 301 299 297 295 293 292 290 288 287 285 284 283 282 280 280 279 278 278 278 277 277 276 276 275 275 274 273 272 271 270 269 268 267 266 264 263 262 262 261 261 260 260 259 258
13 12 11 10 9 8 7 6 5 4 2 1 360 359 359 357 356 356 355 354 352 348 346 346 350 348 340 337 336 333 331 328 325 322 318 316 313 311 309 307 306 304 302 300 298 297 295 293 291 290 288 287 286 285 283 282 282 281 280 280 279 278 277 276 276 275 274 274 273 273 272 271 270 269 268 266 265 263 263 262 261 261 261 260 259 259
13 13 12 11 10 8 7 6 5 5 4 2 1 359 359 358 357 356 354 354 353 350 347 345 349 350 343 339 338 335 332 329 325 322 319 316 314 312 310 309 307 305 303 301 299 297 296 294 292 291 290 289 288 287 286 285 284 283 282 281 280 279 278 277 276 276 275 275 274 273 272 272 271 270 268 267 266 264 263 262 261 260 260 259 259 259
15 14 14 12 10 9 8 6 5 5 4 3 1 360 359 358 357 356 355 354 353 351 348 347 349 351 345 341 340 337 334 331 328 325 322 319 317 314 312 310 308 305 303 301 300 298 297 295 294 293 292 290 289 288 287 286 285 284 283 281 280 279 278 278 277 277 276 276 275 274 273 272 272 270 270 269 268 266 264 262 260 259 258 257 257 257
16 14 14 13 11 9 8 7 6 5 4 3 2 360 359 358 357 357 356 355 353 351 350 349 349 351 347 343 343 340 336 334 331 328 325 322 319 317 314 311 309 307 305 303 302 300 299 297 296 295 293 292 291 290 288 287 286 285 284 283 281 280 279 278 278 277 277 276 276 275 275 274 273 271 269 267 266 265 263 261 259 258 257 256 256 255
16 14 13 13 11 10 8 7 6 5 4 3 2 1 359 359 357 357 357 356 354 351 350 350 350 351 350 346 345 343 339 337 334 331 328 325 323 320 317 315 312 311 309 307 305 303 302 300 298 297 296 295 294 292 291 290 289 288 286 285 284 283 282 282 281 280 279 278 278 277 276 274 273 271 268 266 264 263 262 261 260 259 258 257 256 255
15 14 12 12 11 10 8 7 6 5 4 3 3 2 0 360 358 358 358 357 355 352 351 352 352 352 352 349 347 344 342 339 337 334 332 329 327 324 321 319 316 315 313 311 308 306 304 302 300 299 297 296 294 293 291 290 289 288 287 286 285 285 284 284 284 283 282 281 280 278 276 274 272 270 269 267 265 264 263 262 261 260 259 258 257 256
14 13 11 10 10 10 8 7 6 5 4 3 2 1 1 1 360 359 359 359 357 354 352 353 354 353 352 351 349 346 344 342 340 337 335 333 330 327 325 322 319 317 314 312 309 307 304 302 300 299 297 296 294 293 292 291 290 289 288 287 286 286 286 286 285 284 284 283 281 279 277 275 273 270 269 267 265 264 263 262 261 260 259 258 257 256
13 12 11 9 9 10 9 7 6 5 4 3 1 0 1 1 1 360 0 1 359 356 353 354 355 354 353 352 351 349 347 344 342 340 337 335 332 329 327 324 321 318 316 313 311 308 306 304 302 300 298 297 295 294 293 292 291 289 289 288 288 288 287 287 286 286 285 283 282 280 278 276 274 271 269 266 265 264 263 262 261 259 258 256 255 255
12 11 11 9 8 9 9 8 6 5 3 3 2 0 360 0 0 360 0 1 1 358 354 355 356 356 355 353 352 351 348 346 344 341 339 337 335 332 329 327 324 321 319 317 314 312 310 308 305 304 302 300 299 297 296 294 293 292 291 290 289 288 287 286 286 285 284 282 281 279 277 275 272 270 267 265 263 262 262 261 261 260 258 256 254 253
12 11 10 9 8 8 9 8 7 5 4 3 2 1 1 0 0 360 359 0 2 360 356 355 356 356 356 354 353 352 350 348 346 343 341 339 337 335 332 330 328 326 323 321 319 317 314 312 310 309 307 305 304 303 301 299 298 297 296 295 293 291 289 287 285 283 281 279 278 276 274 273 271 269 267 266 264 262 262 262 261 261 260 258 256 254
11 12 10 9 9 8 8 8 7 6 4 3 2 2 1 1 0 0 360 359 1 1 357 356 357 357 357 355 354 353 351 349 347 345 343 341 340 338 336 333 331 329 327 324 322 319 317 315 313 311 309 308 307 306 304 302 301 301 300 298 296 294 292 289 287 284 281 279 276 274 273 271 270 270 270 269 268 267 265 263 261 260 259 259 257 256
8 11 10 9 9 8 7 8 7 6 5 3 2 1 1 1 360 0 360 359 360 1 359 357 357 358 357 357 356 354 353 351 349 347 345 344 342 341 339 336 333 331 328 326 323 321 319 317 315 313 311 310 309 308 307 306 305 304 302 300 298 296 293 290 287 285 282 280 277 275 273 272 272 273 272 272 271 268 265 262 260 259 258 257 256 255
7 9 11 9 9 8 6 7 7 6 5 4 3 2 1 1 359 359 360 359 359 1 0 358 358 359 358 358 357 356 354 353 351 349 348 347 345 343 341 338 336 333 331 328 326 324 321 319 316 314 313 312 312 311 310 309 307 306 304 302 299 296 293 290 287 285 282 280 278 277 277 277 276 274 273 271 269 266 264 261 260 258 257 256 255 254
9 8 10 10 9 8 7 6 7 6 6 5 4 3 2 2 1 359 359 359 358 0 2 360 359 359 359 359 358 357 355 354 353 352 350 349 347 345 343 340 338 335 332 330 328 325 322 320 317 315 314 313 313 312 310 308 307 305 304 302 300 297 295 292 290 287 285 283 282 281 281 279 276 273 271 269 267 265 263 261 259 258 256 255 254 253
10 8 9 10 10 9 8 7 7 6 6 5 5 4 3 3 2 1 360 359 358 359 1 1 360 360 0 360 359 358 357 355 355 353 352 350 348 346 343 341 339 336 333 331 329 326 323 321 318 316 315 314 313 311 309 308 306 305 303 301 300 298 296 294 293 291 289 288 288 286 282 278 275 272 270 268 267 264 262 260 258 256 255 254 253 252
11 9 9 10 10 9 8 7 7 7 6 5 5 5 5 4 3 3 1 0 359 359 360 1 1 1 1 0 360 359 358 357 356 355 353 351 349 347 344 342 340 338 335 332 329 327 324 322 320 318 317 316 314 312 310 309 308 306 305 303 301 299 298 297 295 294 293 292 291 287 282 279 276 274 271 268 266 263 261 260 258 256 255 253 252 251
11 10 9 9 10 10 9 8 7 7 6 5 5 5 5 5 4 4 3 2 0 359 360 1 1 1 1 1 1 360 359 358 357 356 354 352 350 348 346 344 342 339 337 334 332 330 327 326 323 321 319 318 316 314 313 312 310 309 307 305 303 302 300 299 297 295 295 293 290 286 283 280 277 275 272 270 267 264 261 259 258 257 256 254 253 251
12 11 10 10 10 10 9 8 7 7 6 5 4 4 5 5 4 4 4 3 2 1 1 1 1 1 2 2 2 1 0 359 358 357 356 353 351 349 347 345 343 341 339 337 335 333 331 329 327 325 322 321 320 318 317 316 314 312 311 308 307 305 303 301 299 299 297 293 289 286 284 281 279 276 273 270 268 265 262 260 258 257 256 255 254 252
11 12 11 11 10 10 9 8 7 6 6 4 3 4 4 5 5 4 4 4 3 1 0 1 1 1 2 3 2 2 1 0 359 358 357 355 353 350 349 347 345 344 342 339 338 336 334 332 331 328 326 324 324 323 322 320 318 317 315 312 310 308 306 304 303 302 298 293 290 287 284 282 280 277 273 270 268 266 264 261 259 257 256 255 254 253
8 11 12 12 12 11 9 8 8 6 5 4 3 4 5 5 5 5 4 4 4 2 360 0 1 2 3 3 3 3 2 1 360 359 357 356 354 352 350 349 348 346 344 342 340 339 338 336 335 333 331 329 329 329 327 325 323 321 319 316 314 312 310 308 306 303 299 295 293 289 286 283 280 277 275 272 269 267 265 263 260 258 256 254 253 252
6 8 10 10 12 12 10 9 9 9 7 5 4 3 4 5 5 5 5 4 4 3 0 0 2 3 3 4 4 4 3 2 1 359 358 357 355 354 352 351 350 348 346 345 344 342 341 340 338 337 335 334 333 332 330 328 327 325 322 321 318 315 313 312 308 304 301 298 294 290 287 284 281 278 275 272 270 268 266 263 261 259 257 255 254 252
5 6 7 8 9 10 10 9 10 10 9 7 5 3 4 5 5 5 5 4 4 4 2 1 2 3 4 4 4 4 4 3 2 0 359 358 357 356 354 353 352 351 349 348 347 345 344 342 341 339 337 336 335 333 331 330 329 327 325 324 321 319 317 315 311 307 303 300 296 292 288 285 282 279 275 273 270 268 266 264 262 260 258 256 254 253
6 6 6 7 8 8 9 9 9 9 9 8 6 4 4 5 5 5 5 4 4 4 4 3 2 3 4 4 5 5 4 4 3 2 1 0 359 357 356 356 355 353 351 350 349 348 346 345 343 342 340 338 337 336 335 333 332 330 328 327 325 322 320 318 315 310 306 302 298 295 291 288 285 281 277 275 272 269 268 265 264 262 260 258 256 254
8 7 6 7 8 8 8 9 8 9 8 8 7 5 4 6 6 6 5 4 4 5 5 5 4 4 4 4 5 5 4 5 5 4 3 2 0 359 358 357 356 355 353 352 351 350 349 347 346 345 343 342 341 340 339 338 335 333 332 331 329 327 324 322 319 315 310 306 302 299 295 292 289 285 281 277 274 271 269 267 265 263 261 259 257 255
10 9 8 8 8 8 8 8 8 8 8 8 7 6 5 5 6 6 5 5 6 6 7 6 5 5 5 4 5 5 5 6 6 5 4 3 2 0 360 359 358 357 356 355 354 352 351 351 350 349 348 346 345 344 343 342 340 337 336 334 332 331 329 327 324 321 317 313 309 305 301 298 294 290 284 280 276 273 270 268 266 265 263 261 259 257
11 10 10 9 8 8 8 8 8 8 8 8 7 6 5 5 6 6 6 7 7 7 8 7 6 5 5 5 5 6 6 6 6 6 5 4 3 2 1 1 0 360 359 358 356 355 354 354 354 353 352 350 348 347 346 345 344 342 340 338 337 335 334 332 330 327 324 321 318 314 310 305 300 295 288 282 278 274 271 268 267 266 265 263 261 259
10 11 10 9 8 8 8 8 7 7 8 8 7 6 5 5 6 7 8 8 8 8 8 8 6 5 5 6 6 6 6 6 6 6 6 5 4 3 3 3 2 2 1 360 359 357 357 357 357 356 355 353 351 350 349 348 347 345 344 342 341 340 338 337 335 333 331 328 325 322 318 314 307 300 292 286 281 277 274 271 269 268 266 265 263 262
10 10 10 9 9 8 7 7 7 7 7 7 7 7 6 5 6 8 9 8 8 8 8 8 7 6 5 6 6 6 6 6 7 7 6 6 6 4 4 4 4 3 3 2 1 359 359 359 359 359 357 356 354 352 351 350 350 349 348 346 344 343 342 341 340 338 336 333 330 327 324 319 313 305 296 289 284 281 279 276 274 271 269 267 265 263
8 9 9 9 9 8 7 7 7 7 6 7 7 7 7 7 7 9 10 9 8 8 8 9 8 7 6 6 7 7 7 7 7 7 6 6 6 6 5 5 5 4 4 3 2 1 0 0 1 1 360 358 357 355 353 352 352 351 350 349 348 346 345 344 343 341 339 336 333 331 327 323 318 310 303 295 290 285 282 279 276 273 271 269 267 265
8 8 8 9 8 8 8 7 6 6 6 7 8 8 8 9 9 9 9 9 9 9 9 9 9 9 7 7 7 7 8 7 7 7 7 6 6 6 6 6 6 6 5 4 4 3 3 2 2 2 2 1 359 358 356 354 354 353 352 351 350 349 348 346 345 344 342 339 337 334 331 328 324 318 311 304 298 291 283 278 275 273 272 271 269 267
7 7 8 8 8 7 7 6 6 7 7 7 8 8 9 9 9 9 9 9 9 9 9 9 9 9 8 7 7 8 8 8 8 8 8 7 6 6 7 7 7 7 7 6 6 5 5 4 4 4 3 2 1 360 358 357 356 355 354 353 352 351 350 349 348 347 346 344 341 339 336 333 330 326 319 311 304 295 285 278 276 276 276 274 272 270
5 6 7 7 7 7 7 6 6 7 7 7 7 8 8 8 9 9 10 10 10 10 9 9 9 9 9 8 7 8 8 9 9 9 8 8 7 7 7 8 8 8 8 8 7 6 6 6 6 5 5 4 3 1 360 359 358 358 357 357 356 355 353 352 351 350 350 348 346 344 342 339 337 334 329 320 311 301 292 286 283 281 279 277 275 274
4 5 5 5 5 5 6 7 6 6 6 6 7 7 8 9 9 9 9 10 10 9 9 9 9 9 9 8 7 7 8 9 10 10 9 9 9 8 8 8 8 9 9 9 8 7 7 7 7 7 6 5 4 3 1 0 360 0 360 359 359 358 357 355 354 353 353 352 350 349 347 345 343 340 336 329 319 309 301 294 287 281 278 276 274 273
2 3 3 4 4 4 4 5 6 6 6 6 6 7 8 9 9 9 9 9 9 9 9 9 9 9 9 9 7 7 7 8 10 10 10 10 10 10 9 9 9 9 10 10 9 8 7 7 7 8 7 6 5 4 3 2 1 1 1 1 1 0 359 358 357 356 355 354 353 351 349 347 345 343 340 334 327 318 310 302 294 286 280 277 274 271
1 1 2 2 2 3 3 3 4 5 5 5 6 6 6 7 7 8 9 8 8 9 9 9 9 9 10 10 8 7 6 7 9 10 10 10 10 10 10 9 9 9 9 10 10 9 8 7 7 8 8 8 7 6 5 4 3 2 2 2 2 1 1 1 360 359 357 355 354 353 352 350 348 346 345 341 335 329 322 315 307 298 288 280 274 270
360 0 0 1 1 2 2 2 3 4 4 4 5 5 5 5 5 6 7 8 8 8 9 9 9 9 10 10 9 8 7 7 8 9 10 11 10 10 10 9 9 9 9 10 10 10 9 9 8 8 8 8 8 7 6 5 5 4 4 4 3 3 3 3 3 2 1 359 358 358 358 357 356 354 353 350 345 341 337 332 323 312 301 288 279 273
359 359 359 360 360 0 1 2 2 3 3 3 4 4 5 5 5 4 5 7 8 8 8 8 9 9 10 10 10 9 8 7 7 8 10 11 11 10 10 9 9 9 9 10 10 10 10 9 8 8 8 9 8 8 8 7 6 5 5 5 4 4 4 4 5 5 4 4 4 5 4 3 2 2 2 1 357 353 349 345 340 330 319 305 290 280
358 358 358 358 359 359 360 1 1 2 3 3 3 3 3 4 4 4 5 5 6 6 7 8 8 9 9 10 10 10 10 8 7 8 9 10 11 10 10 10 10 10 9 9 10 10 10 9 9 8 8 9 9 8 8 8 7 7 6 6 6 5 5 5 5 5 6 6 6 8 7 6 6 7 7 7 4 1 357 354 351 345 337 326 310 293
356 357 357 357 358 358 358 359 360 1 2 2 3 3 3 3 4 5 5 4 5 6 6 7 8 8 9 10 10 10 10 9 8 7 8 9 10 11 11 10 10 10 10 10 10 10 10 10 9 9 8 8 9 8 8 8 8 7 7 6 6 6 6 6 6 5 5 5 6 7 8 8 8 9 8 8 6 3 360 357 354 351 347 341 333 322
355 356 357 357 357 357 357 358 359 360 1 1 1 2 2 2 3 4 4 4 4 5 6 7 7 8 9 9 10 10 10 10 9 8 7 8 10 10 11 11 11 10 10 10 10 10 11 10 10 9 8 8 9 9 9 8 8 7 7 7 7 7 7 6 5 5 5 5 5 6 7 8 8 8 8 7 5 3 0 358 357 355 353 350 346 339
355 355 356 356 356 356 357 357 358 359 359 360 0 1 1 2 2 3 3 3 3 4 5 6 7 8 8 9 10 10 11 11 10 9 7 8 9 10 11 11 11 11 10 10 10 10 11 11 10 10 9 8 8 9 9 8 8 7 7 7 7 7 7 6 5 4 4 5 5 5 6 7 7 7 6 5 4 2 0 359 359 358 357 356 354 351
354 354 355 355 356 356 356 356 357 357 358 358 359 0 1 1 1 2 2 2 3 3 4 6 7 7 8 9 10 10 11 11 11 10 8 7 8 10 11 11 11 11 11 11 10 10 10 11 11 10 10 9 9 9 8 8 8 7 7 7 7 7 7 7 6 5 4 5 5 6 7 7 6 5 5 4 3 2 1 2 3 4 3 360 357 359
354 354 354 354 355 355 355 356 356 356 357 357 358 359 360 360 0 1 1 2 2 3 4 5 6 7 8 9 9 10 10 11 11 11 10 8 8 9 10 11 11 11 11 11 11 10 11 11 11 11 10 10 10 9 8 8 8 7 7 7 7 7 7 7 7 6 5 5 6 6 8 8 6 5 5 4 4 4 4 5 7 8 8 5 1 2
353 353 353 353 354 354 355 355 356 356 356 356 357 358 359 359 360 360 0 1 2 3 3 4 5 6 8 8 9 10 10 10 11 11 11 9 8 8 9 10 11 11 11 11 11 11 11 11 11 11 11 11 10 10 9 9 8 8 7 7 7 7 7 7 7 7 7 6 5 6 7 7 7 7 7 7 7 7 7 8 10 12 12 8 3 3
352 352 352 352 353 353 354 355 355 355 355 355 356 357 358 359 359 359 360 1 2 2 2 3 4 5 7 8 9 10 10 10 10 11 12 11 9 8 9 10 11 11 11 11 11 11 11 11 11 12 12 11 11 10 10 9 9 8 7 7 6 6 7 7 8 8 8 6 5 5 6 7 7 8 9 9 10 11 11 12 13 15 15 13 11 13
351 351 351 351 351 352 353 354 354 354 354 354 355 356 357 358 358 359 359 0 1 2 2 2 3 4 6 8 9 9 10 10 10 11 12 12 11 9 9 9 10 11 11 11 11 11 11 11 11 11 12 12 11 10 10 9 9 9 8 7 6 6 6 7 7 8 8 8 6 6 6 6 7 8 9 11 12 13 14 14 14 16 19 21 22 26
349 350 350 350 350 351 351 353 353 354 353 353 354 355 356 357 358 358 359 359 360 1 1 2 3 3 5 7 8 9 10 10 10 11 11 12 12 11 9 9 10 11 11 11 11 11 11 11 11 11 11 12 11 11 10 10 9 9 9 8 7 6 6 6 7 7 8 8 8 7 6 7 7 8 10 12 13 14 14 13 12 14 19 23 26 32